NOAA 17 DEB, 48714

Orbit data source: Space-Track

NOAA 17 DEB, 48714 is space debris in SSO originally from a launch on Mon, 24 Jun 2002 UTC launched from the Air Force Western Test Range (AFWTR). Debris objects in space refer to the collection of defunct objects orbiting the Earth. Examples of debris include non-operational satellites, rocket bodies, and fragments generated from explosions, collisions, or faulty payload assembly.

Loading next visibility...
Identifier
48714, 2002-032AX
Orbit
SSO
Country
Flag of USUS
Related business
Manufacturer
Unknown
Mission
Spacecraft
Bus & Motor
Unknown
Mass
Unknown
Launch date (UTC)
2002-06-24 (23 years ago)
Launch vehicle
Unknown
Launch site
Air Force Western Test Range (AFWTR)
Object type
Payload
Rocket body
Debris
Shape & HBR
Unknown shape, 0.1 m
Radar Cross Section
Small (<0.1 m²)

Expand to show TLE details & history
Last TLE update: 1 day ago

TLE from 1 day ago
0 NOAA 17 DEB
1 48714U 02032AX  25349.37201803  .00383256  00000-0  92629-2 0  9995
2 48714  98.4463 316.5576 0020809 101.5707 258.7873 15.39439835250381
Epoch: 2025-12-15T08:55Z
TLE epoch observation values (Epoch: 2025-12-15T08:55:42.357Z)
Latitude
-0.00004°
Longitude
98.35959°
Altitude
453.64 km
Speed
7.639 km/s
True Right ascension
21h 06m 13s
True Declination
0° 00' 00"
Sunlit
Object was in daylight at epoch
Visualization orbit readout
Latitude
Unknown
Longitude
Unknown
Altitude
Unknown
Speed
Unknown
Apparent Right ascension
Unknown
Apparent Declination
Unknown
Sunlit
N/A
Visualization observer readout
Local Sidereal Time
08:20:23
Azimuth
Unknown
Elevation
Unknown
Doppler factor
Unknown
Orbital elements
Apogee altitude
458.95 km
Perigee altitude
430.555 km
Semi-major axis
6,822.89 km
Eccentricity
0.00208
Inclination
98.4463°
RAAN
316.5576°
Arg. of periapsis
101.5707°
True anomaly
258.55352°
Mean anomaly
258.7873°
Eccentric anomaly
258.6704°
Mean motion
3.85115 °/min
Orbital period
93.48 mins
BSTAR
0.0092629
Loading maneuver chart data...
Computing Atmospheric mass density...
Loading historical data...
Loading historical data...
Loading historical data...
Loading historical data...
Loading historical data...
Loading historical data...
Loading historical data...

Documentation

Showing up to 5 results
|